EDT,Max TemperatureF,Mean TemperatureF,Min TemperatureF,Max Dew PointF,MeanDew PointF,Min DewpointF,Max Humidity, Mean Humidity, Min Humidity, Max Sea Level PressureIn, Mean Sea Level PressureIn, Min Sea Level PressureIn, Max VisibilityMiles, Mean VisibilityMiles, Min VisibilityMiles, Max Wind SpeedMPH, Mean Wind SpeedMPH, Max Gust SpeedMPH,PrecipitationIn, CloudCover, Events, WindDirDegrees
2013-8-1,78,68,56,64,57,50,94,72,37,29.98,29.96,29.95,10,8,2,17,5,23,0.00,4,,289
2013-8-2,77,66,54,65,59,53,95,85,65,29.98,29.93,29.87,10,9,1,17,4,23,0.00,4,Rain,223
2013-8-3,77,68,59,66,56,46,99,71,34,30.10,30.02,29.94,10,7,0,14,3,20,0.00,2,Fog,311
2013-8-4,74,63,52,55,52,48,93,69,39,30.21,30.16,30.10,10,10,10,10,2,,0.00,1,,338
2013-8-5,73,60,48,61,54,47,95,77,52,30.15,30.06,29.96,10,10,3,8,1,,0.00,4,,172
2013-8-6,79,70,62,68,64,59,94,83,66,29.97,29.93,29.90,10,8,4,10,4,10,0.00,6,Rain,191
2013-8-7,81,72,64,71,67,63,98,86,66,29.94,29.88,29.85,10,6,0,12,4,17,0.00,4,Fog-Rain,209
2013-8-8,76,68,61,66,60,57,90,72,53,30.03,29.99,29.94,10,10,7,13,4,16,0.00,2,,34
2013-8-9,79,69,59,64,59,55,90,70,46,30.04,30.01,29.97,10,10,7,10,2,,0.00,1,,299
2013-8-10,79,71,63,64,60,53,92,71,44,30.14,30.10,30.04,10,10,10,8,2,17,0.00,5,,44
2013-8-11,77,66,55,63,58,54,94,72,46,30.15,30.11,30.07,10,10,10,14,1,18,0.00,5,,314
2013-8-12,80,72,64,68,64,60,94,83,63,30.08,29.98,29.87,10,9,1,10,2,17,0.00,6,Rain,214
2013-8-13,67,60,53,65,52,46,96,75,50,30.12,30.02,29.91,10,9,0,13,6,21,0.00,3,Fog,336
2013-8-14,68,56,45,51,47,43,90,70,43,30.22,30.18,30.13,10,10,10,9,3,,0.00,1,,336
2013-8-15,72,58,45,56,51,44,95,75,46,30.20,30.16,30.12,10,9,0,7,1,,0.00,2,Fog,247
2013-8-16,76,62,48,59,52,48,97,71,37,30.21,30.18,30.15,10,8,0,7,0,,0.00,1,Fog,90
2013-8-17,77,64,51,58,54,50,94,70,42,30.27,30.23,30.20,10,10,5,7,1,,0.00,1,,97
2013-8-18,80,66,52,63,57,50,94,74,45,30.24,30.18,30.12,10,8,2,6,1,,0.00,2,,170
2013-8-19,82,70,57,64,59,55,94,74,43,30.15,30.12,30.07,10,8,0,10,1,,0.00,1,Fog,259
2013-8-20,84,72,59,67,62,58,96,74,47,30.17,30.12,30.10,10,8,1,9,2,,0.00,2,,221
2013-8-21,86,76,65,69,65,62,90,73,49,30.15,30.10,30.02,10,8,4,10,2,17,0.00,2,,211
2013-8-22,79,72,65,71,67,64,96,86,74,30.11,30.07,30.02,10,9,3,16,5,28,0.00,5,Rain,280
2013-8-23,79,68,58,66,58,49,96,69,35,30.21,30.15,30.10,10,8,0,10,3,,0.00,1,Fog,28
2013-8-24,82,67,52,61,55,51,95,68,35,30.32,30.27,30.21,10,9,2,8,1,,0.00,0,,149
2013-8-25,86,70,55,65,60,53,92,69,45,30.31,30.25,30.18,10,10,7,10,3,18,0.00,0,,220
2013-8-26,86,74,63,72,66,60,88,73,56,30.21,30.12,30.03,10,10,7,12,5,17,0.00,0,,242
2013-8-27,92,82,72,74,70,69,89,70,49,30.04,29.96,29.86,10,9,4,14,5,17,0.00,2,Rain,224
2013-8-28,83,77,70,72,70,67,92,74,63,30.05,29.93,29.84,10,10,5,10,6,17,0.00,3,,318
2013-8-29,87,74,61,71,66,61,99,76,44,30.10,30.06,30.02,10,7,0,7,1,,0.00,3,Fog,103
2013-8-30,91,78,66,72,68,65,93,69,45,30.02,29.91,29.76,10,8,2,14,4,23,0.00,1,,222
2013-8-31,81,76,70,72,68,65,92,78,58,29.88,29.84,29.80,10,8,4,8,4,,0.00,5,,345